Stations météo

Publicité
Paris-Montsouris, France (7156): Température de l'air & dewpoint: 17.01.2017 05:00:00 - 23.01.2017 05:00:00 (CET)Paris-Montsouris, France (7156): Température de l'air 5cm: 17.01.2017 05:00:00 - 23.01.2017 05:00:00 (CET)Paris-Montsouris, France (7156): Température de l'air -20cm & Température de l'air -100cm: 17.01.2017 05:00:00 - 23.01.2017 05:00:00 (CET)Paris-Montsouris, France (7156): Vitesse du vent & gusts: 17.01.2017 05:00:00 - 23.01.2017 05:00:00 (CET)Paris-Montsouris, France (7156): Direction du vent: 17.01.2017 05:00:00 - 23.01.2017 05:00:00 (CET)Paris-Montsouris, France (7156): reduced air pressure: 17.01.2017 05:00:00 - 23.01.2017 05:00:00 (CET)Paris-Montsouris, France (7156): visibility: 17.01.2017 05:00:00 - 23.01.2017 05:00:00 (CET)Paris-Montsouris, France (7156): Ensoleillement: 17.01.2017 05:00:00 - 23.01.2017 05:00:00 (CET)Paris-Montsouris, France (7156): Quantités de précipitations: 17.01.2017 05:00:00 - 23.01.2017 05:00:00 (CET)
Date & Time tt [°C] td [°C] tt 5cm [°C] tt -20cm [°C] tt -100cm [°C] ff [km/h] ff [knt] fx [km/h] fx [knt] dd ppp [hPa] vv [km] sd [min] rr [mm]
23.01.2017 05:00:00 -0,2 -3,9 -3,9 0,8 6,3 11 6 22 12 N 1027,3 5 0 0,0
23.01.2017 04:00:00 -0,2 -4,5 -4,1 0,8 6,3 9 5 19 11 N 1027,2 6 0 0,0
23.01.2017 03:00:00 0,2 -4,3 -3,2 0,8 6,3 12 6 23 12 NNE 1027,2 6 0 0,0
23.01.2017 02:00:00 0,3 -4,3 -3,1 0,8 6,3 8 5 22 12 NNE 1027,3 7 0 0,0
23.01.2017 01:00:00 0,6 -4,2 -2,5 0,8 6,3 10 5 24 13 NNE 1027,4 7 0 0,0
23.01.2017 00:00:00 1,0 -3,7 -2,5 0,8 6,4 13 7 26 14 NNE 1027,5 7 0 0,0
22.01.2017 23:00:00 1,1 -3,8 -2,9 0,8 6,4 8 5 19 11 N 1027,5 7 0 0,0
22.01.2017 22:00:00 1,4 -4,5 -2,5 0,9 6,4 9 5 19 10 NNE 1027,3 8 0 0,0
22.01.2017 21:00:00 1,8 -4,1 -2,4 0,9 6,4 7 4 17 9 N 1027,1 8 0 0,0
22.01.2017 20:00:00 2,1 -4,4 -1,8 0,8 6,4 12 6 18 10 N 1027,0 9 0 0,0
22.01.2017 19:00:00 2,3 -5,1 -2,3 0,9 6,4 10 5 18 10 NNE 1026,6 11 0 0,0
22.01.2017 18:00:00 3,1 -5,1 -0,5 0,8 6,4 13 7 21 11 NNE 1026,1 12 3 0,0
22.01.2017 17:00:00 4,0 -4,7 1,6 0,8 6,4 11 6 21 11 NNE 1025,8 12 33 0,0
22.01.2017 16:00:00 4,6 -4,4 3,5 0,8 6,4 7 4 18 10 NNE 1025,7 11 60 0,0
22.01.2017 15:00:00 4,9 -5,5 3,8 0,9 6,4 10 5 20 11 NE 1025,5 13 42 0,0
22.01.2017 14:00:00 5,1 -5,0 5,6 0,8 6,4 8 5 17 9 NNE 1025,7 10 60 0,0
22.01.2017 13:00:00 4,2 -5,3 2,9 0,8 6,4 8 4 16 8 NNE 1026,3 11 53 0,0
22.01.2017 12:00:00 3,1 -3,3 1,0 0,9 6,5 5 3 12 7 NW 1026,9 6 53 0,0
22.01.2017 11:00:00 1,2 -4,9 -1,4 0,9 6,5 3 1 9 5 ESE 1027,3 8 60 0,0
22.01.2017 10:00:00 -1,1 -4,8 -4,7 0,9 6,5 4 2 20 11 NE 1027,2 7 60 0,0
22.01.2017 09:00:00 -2,1 -4,8 -6,0 0,9 6,5 6 3 19 10 SE 1027,2 6 0 0,0
22.01.2017 08:00:00 -2,0 -4,5 -6,1 0,9 6,5 8 4 11 6 SE 1026,7 6 0 0,0
22.01.2017 07:00:00 -1,7 -3,9 -6,2 0,9 6,5 5 3 9 5 E 1026,7 4,3 0 0,0
22.01.2017 06:00:00 -1,3 -4,0 -5,7 0,9 6,5 4 2 18 10 SE 1026,4 6 0 0,0
22.01.2017 05:00:00 -1,4 -4,1 -5,4 0,9 6,5 5 3 11 6 NE 1026,5 6 0 0,0
22.01.2017 04:00:00 -1,2 -3,6 -5,7 1,0 6,5 0 0 9 5 N 1026,5 5 0 0,0
22.01.2017 03:00:00 -1,2 -3,6 -5,7 1,0 6,5 4 2 10 6 N 1027,1 5 0 0,0
22.01.2017 02:00:00 -1,0 -3,4 -5,3 1,0 6,5 7 4 13 7 ESE 1027,5 4,6 0 0,0
22.01.2017 01:00:00 -1,0 -3,4 -5,4 1,0 6,5 0 0 10 5 N 1027,4 4,5 0 0,0
22.01.2017 00:00:00 -0,7 -3,6 -5,1 1,0 6,6 2 1 19 11 WNW 1027,7 5 0 0,0
21.01.2017 23:00:00 -0,2 -3,6 -4,7 1,0 6,6 3 2 13 7 SSE 1027,4 5 0 0,0
21.01.2017 22:00:00 0,2 -3,4 -4,2 1,0 6,6 8 5 14 8 SE 1027,3 5 0 0,0
21.01.2017 21:00:00 0,7 -3,0 -4,1 1,0 6,6 6 4 19 11 SE 1027,0 6 0 0,0
21.01.2017 20:00:00 0,7 -3,2 -4,0 1,0 6,6 6 3 11 6 SE 1026,9 5 0 0,0
21.01.2017 19:00:00 0,8 -3,5 -4,0 1,0 6,6 5 3 19 11 SE 1026,9 6 0 0,0
21.01.2017 18:00:00 0,9 -4,0 -3,5 1,0 6,6 5 3 10 5 SE 1027,0 6 3 0,0
21.01.2017 17:00:00 1,9 -4,0 -1,0 1,0 6,6 5 3 11 6 S 1026,9 7 60 0,0
21.01.2017 16:00:00 2,3 -4,2 1,8 1,0 6,6 5 3 20 11 SE 1026,9 7 60 0,0
21.01.2017 15:00:00 2,1 -4,4 2,2 1,0 6,6 6 3 13 7 SE 1027,0 7 44 0,0
21.01.2017 14:00:00 0,8 -4,6 1,2 1,0 6,7 9 5 19 10 ESE 1027,3 6 29 0,0
21.01.2017 13:00:00 0,4 -4,8 -0,8 1,0 6,7 5 3 10 5 ESE 1027,9 6 60 0,0
21.01.2017 12:00:00 -1,5 -5,7 -2,4 1,0 6,6 6 3 21 11 SE 1028,6 5 60 0,0
21.01.2017 11:00:00 -3,2 -6,5 -3,9 1,1 6,7 8 4 19 10 ESE 1028,9 6 60 0,0
21.01.2017 10:00:00 -4,1 -6,9 -6,5 1,1 6,7 8 4 16 9 SE 1028,8 6 60 0,0
21.01.2017 09:00:00 -4,7 -7,1 -7,6 1,1 6,7 7 4 15 8 ESE 1028,7 6 0 0,0
21.01.2017 08:00:00 -4,7 -7,3 -7,8 1,1 6,7 7 4 13 7 ESE 1028,4 7 0 0,0
21.01.2017 07:00:00 -4,6 -7,5 -7,4 1,2 6,7 5 3 17 9 SE 1028,0 7 0 0,0
21.01.2017 06:00:00 -3,9 -7,0 -6,9 1,2 6,7 5 3 14 8 SSE 1028,4 8 0 0,0
21.01.2017 05:00:00 -3,3 -6,8 -6,5 1,2 6,7 9 5 15 8 SE 1028,5 9 0 0,0
21.01.2017 04:00:00 -2,8 -6,4 -6,6 1,2 6,7 9 5 21 11 ESE 1028,9 10 0 0,0
21.01.2017 03:00:00 -2,7 -6,5 -6,1 1,2 6,7 5 3 21 11 ESE 1028,9 10 0 0,0
21.01.2017 02:00:00 -2,0 -6,4 -5,4 1,2 6,8 6 3 22 12 ESE 1029,0 11 0 0,0
21.01.2017 01:00:00 -1,5 -5,9 -5,1 1,3 6,8 7 4 19 10 E 1029,2 12 0 0,0
21.01.2017 00:00:00 -1,5 -6,1 -5,4 1,3 6,8 6 4 19 10 E 1029,6 12 0 0,0
20.01.2017 23:00:00 -1,4 -5,8 -4,9 1,3 6,8 6 4 22 12 E 1029,6 11 0 0,0
20.01.2017 22:00:00 -0,8 -5,4 -4,5 1,3 6,8 9 5 18 10 E 1029,8 11 0 0,0
20.01.2017 21:00:00 -1,1 -5,5 -4,4 1,3 6,8 8 4 19 10 E 1030,1 11 0 0,0
20.01.2017 20:00:00 -0,5 -5,5 -4,4 1,3 6,8 7 4 19 10 ESE 1030,3 12 0 0,0
20.01.2017 19:00:00 -0,5 -5,5 -3,7 1,3 6,8 9 5 21 12 ESE 1030,2 13 0 0,0
20.01.2017 18:00:00 -0,1 -5,7 -2,6 1,3 6,8 9 5 24 13 E 1030,4 13 1 0,0
20.01.2017 17:00:00 0,4 -6,0 -1,1 1,3 6,8 11 6 22 12 E 1030,2 12 60 0,0
20.01.2017 16:00:00 0,7 -6,0 -0,1 1,3 6,8 8 5 21 11 ENE 1030,0 12 60 0,0
20.01.2017 15:00:00 0,9 -6,4 0,8 1,3 6,8 9 5 19 11 E 1030,0 13 60 0,0
20.01.2017 14:00:00 1,3 -6,1 1,4 1,3 6,9 7 4 21 12 ESE 1030,3 13 60 0,0
20.01.2017 13:00:00 0,0 -7,1 -0,2 1,3 6,9 10 6 24 13 ESE 1031,2 15 60 0,0
20.01.2017 12:00:00 -0,6 -7,0 -1,5 1,4 6,9 15 8 29 16 SE 1031,5 14 60 0,0
20.01.2017 11:00:00 -1,8 -7,7 -2,4 1,4 6,9 12 7 28 15 ESE 1032,0 17 60 0,0
20.01.2017 10:00:00 -2,4 -8,1 -4,2 1,4 6,9 13 7 29 16 E 1031,9 20 58 0,0
20.01.2017 09:00:00 -2,7 -8,0 -5,0 1,4 6,9 12 6 27 15 E 1031,7 20 0 0,0
20.01.2017 08:00:00 -2,5 -8,0 -4,8 1,5 6,9 11 6 30 16 E 1031,6 20 0 0,0
20.01.2017 07:00:00 -2,3 -7,8 -5,1 1,5 6,9 10 6 28 15 ENE 1031,6 20 0 0,0
20.01.2017 06:00:00 -2,3 -7,8 -5,0 1,5 6,9 11 6 26 14 ENE 1031,7 20 0 0,0
20.01.2017 05:00:00 -2,2 -7,5 -5,4 1,5 7,0 13 7 27 14 ENE 1031,8 20 0 0,0
20.01.2017 04:00:00 -1,9 -7,4 -5,0 1,5 7,0 12 7 25 13 NE 1032,1 20 0 0,0
20.01.2017 03:00:00 -1,7 -7,0 -5,3 1,5 6,9 13 7 23 13 ENE 1032,4 20 0 0,0
20.01.2017 02:00:00 -1,3 -7,0 -4,2 1,6 7,0 11 6 28 15 ENE 1032,4 20 0 0,0
20.01.2017 01:00:00 -1,2 -6,6 -4,5 1,6 7,0 9 5 24 13 ENE 1032,7 17 0 0,0
20.01.2017 00:00:00 -0,8 -6,2 -3,7 1,6 7,0 8 5 29 15 ENE 1033,0 16 0 0,0
19.01.2017 23:00:00 -0,5 -5,9 -4,1 1,6 7,0 6 4 25 13 E 1033,1 15 0 0,0
19.01.2017 22:00:00 -0,3 -5,5 -4,1 1,6 7,0 10 5 26 14 ENE 1033,2 14 0 0,0
19.01.2017 21:00:00 -0,5 -5,3 -3,8 1,6 7,0 10 6 25 13 ENE 1033,3 14 0 0,0
19.01.2017 20:00:00 -0,2 -5,2 -3,3 1,7 7,0 11 6 24 13 ENE 1033,1 14 0 0,0
19.01.2017 19:00:00 -0,6 -5,4 -3,7 1,7 7,0 7 4 23 13 ENE 1033,0 13 0 0,0
19.01.2017 18:00:00 0,0 -5,4 -2,4 1,7 7,0 12 7 27 15 ENE 1033,0 14 0 0,0
19.01.2017 17:00:00 0,1 -5,5 -1,7 1,7 7,0 11 6 23 13 NE 1033,0 14 60 0,0
19.01.2017 16:00:00 0,3 -5,9 -0,2 1,7 7,1 9 5 26 14 ENE 1032,9 14 60 0,0
19.01.2017 15:00:00 0,3 -6,1 0,1 1,7 7,0 11 6 23 12 NE 1033,3 13 60 0,0
19.01.2017 14:00:00 0,6 -6,5 0,6 1,7 7,0 14 7 29 15 ENE 1033,6 16 60 0,0
19.01.2017 13:00:00 -0,8 -7,2 -0,4 1,8 7,1 14 8 24 13 ENE 1034,1 15 60 0,0
19.01.2017 12:00:00 -1,4 -7,3 -2,0 1,8 7,1 11 6 36 19 E 1034,6 15 60 0,0
19.01.2017 11:00:00 -2,4 -7,9 -3,1 1,8 7,1 14 7 35 19 E 1034,6 15 60 0,0
19.01.2017 10:00:00 -3,0 -7,9 -4,4 1,8 7,1 15 8 35 19 ENE 1034,4 16 57 0,0
19.01.2017 09:00:00 -3,3 -7,8 -4,8 1,9 7,1 18 10 39 21 ENE 1034,1 16 0 0,0
19.01.2017 08:00:00 -3,2 -7,9 -5,5 1,9 7,1 16 8 40 22 ENE 1033,9 17 0 0,0
19.01.2017 07:00:00 -3,2 -7,9 -5,6 1,9 7,1 14 8 33 18 NE 1033,8 18 0 0,0
19.01.2017 06:00:00 -3,2 -7,5 -5,6 2,0 7,1 16 9 33 18 NE 1033,6 17 0 0,0
19.01.2017 05:00:00 -3,0 -7,5 -5,1 2,0 7,1 15 8 33 18 NE 1033,9 19 0 0,0
19.01.2017 04:00:00 -2,6 -7,5 -4,9 2,0 7,1 13 7 35 19 NE 1034,1 19 0 0,0
19.01.2017 03:00:00 -2,6 -7,3 -5,0 2,0 7,1 13 7 29 16 NE 1034,3 18 0 0,0
19.01.2017 02:00:00 -2,3 -7,4 -5,0 2,1 7,1 10 5 35 19 NE 1034,1 20 0 0,0
19.01.2017 01:00:00 -1,6 -7,5 -4,3 2,1 7,1 16 9 36 19 NE 1034,5 20 0 0,0
19.01.2017 00:00:00 -1,5 -7,0 -3,9 2,1 7,1 13 7 40 22 NE 1034,7 20 0 0,0
18.01.2017 23:00:00 -0,8 -7,0 -3,6 2,2 7,2 18 10 32 17 ENE 1034,7 20 0 0,0
18.01.2017 22:00:00 -0,6 -6,8 -3,6 2,2 7,1 14 8 31 17 ENE 1034,4 20 0 0,0
18.01.2017 21:00:00 -0,6 -6,6 -3,4 2,2 7,1 14 8 35 19 NE 1034,5 20 0 0,0
18.01.2017 20:00:00 -0,5 -5,7 -3,1 2,3 7,2 13 7 31 17 NE 1034,5 20 0 0,0
18.01.2017 19:00:00 -0,1 -5,7 -2,6 2,3 7,2 13 7 33 18 NE 1034,5 20 0 0,0
18.01.2017 18:00:00 0,1 -6,1 -2,4 2,3 7,2 15 8 34 19 NE 1034,3 20 0 0,0
18.01.2017 17:00:00 0,3 -6,6 -1,0 2,3 7,2 20 11 39 21 NE 1034,1 20 58 0,0
18.01.2017 16:00:00 0,6 -6,7 -0,1 2,3 7,2 13 7 46 25 ENE 1034,3 20 60 0,0
18.01.2017 15:00:00 0,5 -7,0 0,1 2,3 7,2 19 10 40 22 NE 1034,0 20 60 0,0
18.01.2017 14:00:00 0,7 -6,6 1,5 2,4 7,2 16 8 36 19 NE 1034,3 20 60 0,0
18.01.2017 13:00:00 -0,4 -6,6 -0,7 2,4 7,2 19 11 37 20 NE 1034,8 20 60 0,0
18.01.2017 12:00:00 -1,6 -7,1 -2,3 2,4 7,2 18 10 39 21 NE 1035,6 20 60 0,0
18.01.2017 11:00:00 -2,6 -7,1 -3,2 2,5 7,2 16 8 41 22 NE 1035,9 20 60 0,0
18.01.2017 10:00:00 -3,2 -7,2 -4,8 2,5 7,2 19 10 36 20 NE 1035,8 20 56 0,0
18.01.2017 09:00:00 -3,5 -7,1 -5,3 2,6 7,2 16 9 41 22 NNE 1035,9 18 0 0,0
18.01.2017 08:00:00 -3,4 -7,2 -5,2 2,6 7,2 19 10 37 20 NE 1035,3 20 0 0,0
18.01.2017 07:00:00 -3,3 -7,1 -5,3 2,7 7,2 17 9 34 18 NE 1035,3 20 0 0,0
18.01.2017 06:00:00 -3,3 -6,8 -5,3 2,8 7,2 15 8 31 17 NNE 1035,0 19 0 0,0
18.01.2017 05:00:00 -3,3 -6,8 -5,3 2,8 7,2 16 8 35 19 NNE 1035,2 20 0 0,0
18.01.2017 04:00:00 -3,0 -6,5 -5,0 2,9 7,2 13 7 31 17 NE 1035,6 20 0 0,0
18.01.2017 03:00:00 -2,9 -6,4 -5,3 2,9 7,2 15 8 32 18 NNE 1035,7 20 0 0,0
18.01.2017 02:00:00 -2,7 -6,3 -5,3 3,0 7,2 15 8 35 19 NE 1035,7 20 0 0,0
18.01.2017 01:00:00 -2,4 -6,4 -4,4 3,0 7,2 14 7 35 19 NE 1035,9 20 0 0,0
18.01.2017 00:00:00 -2,2 -6,0 -4,1 3,1 7,3 13 7 37 20 NE 1036,0 20 0 0,0
17.01.2017 23:00:00 -2,0 -5,8 -4,4 3,1 7,2 16 9 32 18 NE 1036,0 20 0 0,0
17.01.2017 22:00:00 -2,0 -5,3 -4,3 3,2 7,3 13 7 34 18 NNE 1036,2 15 0 0,0
17.01.2017 21:00:00 -1,7 -5,4 -3,5 3,2 7,2 17 9 32 18 NNE 1035,9 13 0 0,0
17.01.2017 20:00:00 -1,5 -4,7 -3,0 3,3 7,3 15 8 36 20 NE 1036,0 8 0 0,0
17.01.2017 19:00:00 -1,1 -4,6 -2,0 3,3 7,2 18 10 37 20 NE 1035,7 8 0 0,0
17.01.2017 18:00:00 -1,3 -4,8 -2,1 3,3 7,2 25 13 42 23 NE 1035,3 9 0 0,0
17.01.2017 17:00:00 -0,9 -5,0 -1,8 3,3 7,3 19 10 39 21 NNE 1035,2 11 40 0,0
17.01.2017 16:00:00 -0,4 -4,3 -0,6 3,3 7,3 18 10 34 18 NE 1034,8 9 60 0,0
17.01.2017 15:00:00 0,0 -4,3 0,0 3,3 7,2 17 9 34 18 NE 1034,8 9 60 0,0
17.01.2017 14:00:00 0,5 -4,3 1,9 3,4 7,3 18 10 34 18 NNE 1035,1 10 60 0,0
17.01.2017 13:00:00 -0,2 -4,8 -0,4 3,4 7,3 16 9 32 17 NE 1035,3 9 60 0,0
17.01.2017 12:00:00 -0,9 -4,8 -1,4 3,5 7,3 14 8 30 16 NNE 1035,7 9 60 0,0
17.01.2017 11:00:00 -1,6 -4,8 -1,8 3,6 7,3 13 7 29 16 NNE 1035,5 8 60 0,0
17.01.2017 10:00:00 -1,9 -4,2 -3,7 3,7 7,3 14 7 29 15 NE 1035,3 8 55 0,0
17.01.2017 09:00:00 -2,0 -3,9 -5,0 3,7 7,3 13 7 23 12 N 1034,8 7 0 0,0
17.01.2017 08:00:00 -2,0 -3,9 -5,2 3,8 7,3 13 7 25 14 NE 1034,1 9 0 0,0
17.01.2017 07:00:00 -2,0 -3,7 -4,8 3,9 7,3 12 7 23 12 NE 1033,8 8 0 0,0
17.01.2017 06:00:00 -1,9 -3,3 -4,3 4,0 7,3 8 5 21 11 NNE 1033,2 7 0 0,0
17.01.2017 05:00:00 -1,4 -2,8 -3,9 4,1 7,3 10 5 22 12 NNE 1032,9 6 0 0,0

tt = Température de l'air
td = dewpoint
tt 5cm = Température de l'air 5cm
tt -20cm = Température de l'air -20cm
tt -100cm = Température de l'air -100cm
ff = Vitesse du vent
fx = gusts
dd = Direction du vent
ppp = reduced air pressure
vv = visibility
sd = Ensoleillement
rr = Quantités de précipitations

stations d'obs. à proximité